Regional Weather Roundup
Issued by NWS

Home | Current Version | Previous Version | Graphics & Text | Print | Product List | Glossary On
Versions: 1 2 3 4 5 6 7 8 9 10 11 12 13 14 15 16 17 18 19 20 21 22 23 24 25 26 27 28 29 30 31 32 33 34 35 36 37 38 39 40 41 42 43 44 45 46 47 48 49 50
000
ASUS45 KCYS 270510
RWRWY

WYOMING REGIONAL WEATHER ROUNDUP
NATIONAL WEATHER SERVICE CHEYENNE WY
1100 PM MDT SAT MAY 26 2018

NOTE:  "FAIR" INDICATES FEW OR NO CLOUDS BELOW 12,000 FEET
WITH NO SIGNIFICANT WEATHER AND/OR OBSTRUCTIONS TO VISIBILITY.

WYZ001-270600-
YELLOWSTONE NATIONAL PARK

CITY           SKY/WX    TMP DP  RH WIND       PRES   REMARKS
LK YELLOWSTONE   N/A     44  36  73 CALM      30.09R
W YELLOWSTONE  NOT AVBL

$$
WYZ002>013-054>058-071-098>099-270600-
NORTHERN WYOMING

CITY           SKY/WX    TMP DP  RH WIND       PRES   REMARKS
JACKSON        FAIR      51  41  68 NE5       29.98R
CODY           FAIR      61  42  49 CALM      29.93R
GREYBULL       FAIR      73  42  32 NW29G37   29.75R
WORLAND        FAIR      69  42  37 NW14G22   29.78R
SHERIDAN       FAIR      69  55  60 NW14      29.84R
BUFFALO        MOCLDY    68  54  60 NW18G28   29.87S
GILLETTE       FAIR      71  60  68 W12       29.82R
NEWCASTLE      FAIR      77  43  29 E12       29.77S

$$
WYZ014>020-022>026-101>103-270600-
CENTRAL WYOMING

CITY           SKY/WX    TMP DP  RH WIND       PRES   REMARKS
BIG PINEY      FAIR      56  34  43 W7        29.93R
PINEDALE       FAIR      50  37  62 W15       29.93F
DUBOIS         FAIR      54  32  43 NW7       29.97R
LANDER         FAIR      66  43  43 N12       29.84R
RIVERTON       FAIR      67  40  37 NE25G35   29.82R
CASPER         FAIR      66  39  37 N9        29.82S
DOUGLAS        FAIR      70  42  36 NE15      29.78F

$$
WYZ021-027>030-104>119-270600-
SOUTHERN WYOMING

CITY           SKY/WX    TMP DP  RH WIND       PRES   REMARKS
EVANSTON       FAIR      54  27  35 CALM      29.96R
FORT BRIDGER   FAIR      60  24  25 W17G23    29.97S
ROCK SPRINGS   FAIR      64  20  18 W3        29.90R
DIXON          MOCLDY    72  21  14 S24G37    29.93R
RAWLINS        MOCLDY    72  21  14 SW9       29.92R
SARATOGA       FAIR      61  23  23 W10       29.93R
LARAMIE        FAIR      58  43  57 SE8       29.93S
CHEYENNE       FAIR      66  44  45 SE7       29.87S
TORRINGTON     FAIR      75  48  38 SE9       29.73R
PINE BLUFFS    FAIR      70  37  30 SE12G21   29.82F

$$



USA.gov is the U.S. government's official web portal to all federal, state and local government web resources and services.